User: anonymous   Login
Location: Unspecified
(0.0000°N, 0.0000°E)
Time: 17:01:10
(UTC+00:00)
Language:

Orbcomm A3 (FM07) - Orbit

View from above orbital plane
View from above orbital plane
View from above satellite
View from above satellite

Ground track
Ground track

The orbit data is extracted from the following two-line orbital elements,

1 25119U 97084H   18174.75767328 +.00000003 +00000-0 +46984-4 0  9990
2 25119 045.0160 265.1993 0002592 321.6260 038.4404 14.38746684073812
Epoch (UTC): 23 June 2018 18:11:02
Eccentricity: 0.0002592
inclination: 45.0160°
perigee height: 761 km
apogee height: 764 km
right ascension of ascending node: 265.1993°
argument of perigee: 321.6260°
revolutions per day: 14.38746684
mean anomaly at epoch: 38.4404°
orbit number at epoch: 7381

The dashed part of the orbit path shows where the satellite is in the earth's shadow,  

DLR